Regional Weather Roundup
Issued by NWS

Current Version | Previous Version | Text Only | Print | Product List | Glossary On
Versions: 1 2 3 4 5 6 7 8 9 10 11 12 13 14 15 16 17 18 19 20 21 22 23 24 25 26 27 28 29 30 31 32 33 34 35 36 37 38 39 40 41 42 43 44 45 46 47 48 49 50
000
ASUS45 KABQ 010310
RWRNM
WEATHER ROUNDUP FOR NEW MEXICO
NATIONAL WEATHER SERVICE ALBUQUERQUE NM
900 PM MDT TUE MAR 31 2015

NOTE: "FAIR" MEANS FEW OR NO CLOUDS BELOW 12,000 FEET AGL WITH NO
       SIGNIFICANT WEATHER OR OBSTRUCTIONS TO VISION.

      THIS PRODUCT IS RELEASED AS TWO VERSIONS.  ONE VERSION NEAR
      THE TOP OF THE HOUR CONTAINING PRELIMINARY DATA FROM ALBUQUERQUE
      AND OTHER STATIONS.  A FINAL VERSION WITH ADDITIONAL DATA IS
      ISSUED ABOUT 10 MINUTES AFTER THE HOUR.

NMZ501-503-504-510>518-010400-
NORTHWEST PLATEAU/NORTHCENTRAL MOUNTAINS

CITY           SKY/WX    TMP DP  RH WIND       PRES   REMARKS
FARMINGTON     CLEAR     65  17  15 S5        29.93S
LOS ALAMOS     PTCLDY    57  19  22 W5        30.08S
SANTA FE       PTCLDY    57  17  21 NW6       30.03R
TAOS           PTCLDY    50  19  29 SE9       30.07S
ANGEL FIRE     FAIR      44  22  42 SE8       30.15R

$$
NMZ402-403-502-505>509-010400-
WESTCENTRAL MOUNTAINS/SOUTHWEST MOUNTAINS

CITY           SKY/WX    TMP DP  RH WIND       PRES   REMARKS
GALLUP         FAIR      57  20  23 SW6       30.05R
GRANTS         FAIR      53  20  27 CALM      30.07R
SILVER CITY    FAIR      63  36  36 S13       30.08R

$$
NMZ407-409-411-412-010400-
SOUTHERN DESERTS

CITY           SKY/WX    TMP DP  RH WIND       PRES   REMARKS
LORDSBURG      FAIR      64  41  42 SW17G26   29.98R
DEMING         FAIR      64  41  42 SW13      30.01R
LAS CRUCES     MOCLDY    65  40  40 S3        30.02R
HOLLOMAN AFB   MOCLDY    71  40  32 SE28      29.95R
ALAMOGORDO     MOCLDY    68  39  34 S18G29    29.99R
T OR C         FAIR      65  27  23 W6        29.97R

$$
NMZ519>523-010400-
CENTRAL VALLEYS/CENTRAL HIGHLANDS

CITY           SKY/WX    TMP DP  RH WIND       PRES   REMARKS
ALBUQUERQUE    MOCLDY    68  23  18 W5        29.98S
DOUBLE EAGLE   CLEAR     55  21  26 W8        30.00F
MORIARTY ARPT  FAIR      56  16  21 CALM      30.04S
CLINES CORNERS MOCLDY    53  20  27 W10       30.07R
BELEN          FAIR      56  22  26 SW10      29.98S
SOCORRO        FAIR      67  25  20 W6        29.97R

$$
NMZ524>526-539-540-010400-
SOUTHCENTRAL MOUNTAINS

CITY           SKY/WX    TMP DP  RH WIND       PRES   REMARKS
RUIDOSO        CLOUDY    54  28  37 SW8       30.11S

$$
NMZ527>531-010400-
NORTHEAST HIGHLANDS/NORTHEAST PLAINS

CITY           SKY/WX    TMP DP  RH WIND       PRES   REMARKS
LAS VEGAS      PTCLDY    52  21  29 W6        30.05R
RATON          PTCLDY    54  18  24 W5        29.99R
CLAYTON        CLEAR     62  24  23 SE5       29.93S

$$
NMZ532>537-010400-
EASTCENTRAL PLAINS

CITY           SKY/WX    TMP DP  RH WIND       PRES   REMARKS
TUCUMCARI      CLEAR     61  27  27 SW10      29.87S
CANNON AFB     NOT AVBL
CLOVIS AIRPORT PTCLDY    61  36  39 S12       29.93S

$$
NMZ028-029-538-010400-
SOUTHEAST PLAINS

CITY           SKY/WX    TMP DP  RH WIND       PRES   REMARKS
ROSWELL        MOCLDY    66  39  37 SW14      29.93R
ARTESIA        MOCLDY    66  45  45 SW13      29.94R
CARLSBAD       CLOUDY    63  45  51 SW9       29.91R
HOBBS          MOCLDY    63  37  39 S7        29.96S


$$


USA.gov is the U.S. government's official web portal to all federal, state and local government web resources and services.